Year,Month,Day,Hour,Minute,Value (Times are PST for temperature in C)
2018,09,17,00,00,10.50
2018,09,17,00,01,10.50
2018,09,17,00,02,10.50
2018,09,17,00,03,10.50
2018,09,17,00,04,10.40
2018,09,17,00,05,10.40
2018,09,17,00,06,10.40
2018,09,17,00,07,10.40
2018,09,17,00,08,10.40
2018,09,17,00,09,10.40
2018,09,17,00,10,10.40
2018,09,17,00,11,10.40
2018,09,17,00,12,10.40
2018,09,17,00,13,10.30
2018,09,17,00,14,10.30
2018,09,17,00,15,10.30
2018,09,17,00,16,10.30
2018,09,17,00,17,10.30
2018,09,17,00,18,10.30
2018,09,17,00,19,10.20
2018,09,17,00,20,10.20
2018,09,17,00,21,10.20
2018,09,17,00,22,10.20
2018,09,17,00,23,10.20
2018,09,17,00,24,10.10
2018,09,17,00,25,10.10
2018,09,17,00,26,10.10
2018,09,17,00,27,10.10
2018,09,17,00,28,10.10
2018,09,17,00,29,10.10
2018,09,17,00,30,10.10
2018,09,17,00,31,10.10
2018,09,17,00,32,10.10
2018,09,17,00,33,10.10
2018,09,17,00,34,10.10
2018,09,17,00,35,10.10
2018,09,17,00,36,10.10
2018,09,17,00,37,10.10
2018,09,17,00,38,10.20
2018,09,17,00,39,10.20
2018,09,17,00,40,10.20
2018,09,17,00,41,10.20
2018,09,17,00,42,10.20
2018,09,17,00,43,10.20
2018,09,17,00,44,10.20
2018,09,17,00,45,10.20
2018,09,17,00,46,10.20
2018,09,17,00,47,10.20
2018,09,17,00,48,10.20
2018,09,17,00,49,10.20
2018,09,17,00,50,10.20
2018,09,17,00,51,10.30
2018,09,17,00,52,10.30
2018,09,17,00,53,10.20
2018,09,17,00,54,10.30
2018,09,17,00,55,10.30
2018,09,17,00,56,10.30
2018,09,17,00,57,10.30
2018,09,17,00,58,10.30
2018,09,17,00,59,10.30
2018,09,17,01,00,10.30
2018,09,17,01,01,10.30
2018,09,17,01,02,10.30
2018,09,17,01,03,10.30
2018,09,17,01,04,10.20
2018,09,17,01,05,10.20
2018,09,17,01,06,10.20
2018,09,17,01,07,10.20
2018,09,17,01,08,10.20
2018,09,17,01,09,10.20
2018,09,17,01,10,10.20
2018,09,17,01,11,10.20
2018,09,17,01,12,10.20
2018,09,17,01,13,10.10
2018,09,17,01,14,10.10
2018,09,17,01,15,10.10
2018,09,17,01,16,10.00
2018,09,17,01,17,10.00
2018,09,17,01,18,10.00
2018,09,17,01,19,9.90
2018,09,17,01,20,9.90
2018,09,17,01,21,9.90
2018,09,17,01,22,9.80
2018,09,17,01,23,9.80
2018,09,17,01,24,9.80
2018,09,17,01,25,9.80
2018,09,17,01,26,9.70
2018,09,17,01,27,9.70
2018,09,17,01,28,9.70
2018,09,17,01,29,9.60
2018,09,17,01,30,9.60
2018,09,17,01,31,9.60
2018,09,17,01,32,9.60
2018,09,17,01,33,9.50
2018,09,17,01,34,9.50
2018,09,17,01,35,9.50
2018,09,17,01,36,9.40
2018,09,17,01,37,9.40
2018,09,17,01,38,9.30
2018,09,17,01,39,9.30
2018,09,17,01,40,9.30
2018,09,17,01,41,9.20
2018,09,17,01,42,9.20
2018,09,17,01,43,9.10
2018,09,17,01,44,9.10
2018,09,17,01,45,9.10
2018,09,17,01,46,9.00
2018,09,17,01,47,9.00
2018,09,17,01,48,8.90
2018,09,17,01,49,8.90
2018,09,17,01,50,9.00
2018,09,17,01,51,9.10
2018,09,17,01,52,9.20
2018,09,17,01,53,9.20
2018,09,17,01,54,9.30
2018,09,17,01,55,9.30
2018,09,17,01,56,9.40
2018,09,17,01,57,9.50
2018,09,17,01,58,9.50
2018,09,17,01,59,9.60
2018,09,17,02,00,9.60
2018,09,17,02,01,9.70
2018,09,17,02,02,9.70
2018,09,17,02,03,9.70
2018,09,17,02,04,9.70
2018,09,17,02,05,9.70
2018,09,17,02,06,9.70
2018,09,17,02,07,9.70
2018,09,17,02,08,9.70
2018,09,17,02,09,9.70
2018,09,17,02,10,9.70
2018,09,17,02,11,9.60
2018,09,17,02,12,9.60
2018,09,17,02,13,9.60
2018,09,17,02,14,9.50
2018,09,17,02,15,9.50
2018,09,17,02,16,9.50
2018,09,17,02,17,9.50
2018,09,17,02,18,9.40
2018,09,17,02,19,9.40
2018,09,17,02,20,9.40
2018,09,17,02,21,9.40
2018,09,17,02,22,9.40
2018,09,17,02,23,9.40
2018,09,17,02,24,9.40
2018,09,17,02,25,9.50
2018,09,17,02,26,9.50
2018,09,17,02,27,9.50
2018,09,17,02,28,9.50
2018,09,17,02,29,9.50
2018,09,17,02,30,9.40
2018,09,17,02,31,9.40
2018,09,17,02,32,9.40
2018,09,17,02,33,9.40
2018,09,17,02,34,9.40
2018,09,17,02,35,9.30
2018,09,17,02,36,9.30
2018,09,17,02,37,9.30
2018,09,17,02,38,9.30
2018,09,17,02,39,9.20
2018,09,17,02,40,9.20
2018,09,17,02,41,9.20
2018,09,17,02,42,9.20
2018,09,17,02,43,9.20
2018,09,17,02,44,9.20
2018,09,17,02,45,9.20
2018,09,17,02,46,9.20
2018,09,17,02,47,9.10
2018,09,17,02,48,9.10
2018,09,17,02,49,9.10
2018,09,17,02,50,9.10
2018,09,17,02,51,9.10
2018,09,17,02,52,9.10
2018,09,17,02,53,9.20
2018,09,17,02,54,9.20
2018,09,17,02,55,9.20
2018,09,17,02,56,9.10
2018,09,17,02,57,9.20
2018,09,17,02,58,9.20
2018,09,17,02,59,9.20
2018,09,17,03,00,9.20
2018,09,17,03,01,9.10
2018,09,17,03,02,9.10
2018,09,17,03,03,9.20
2018,09,17,03,04,9.20
2018,09,17,03,05,9.20
2018,09,17,03,06,9.20
2018,09,17,03,07,9.20
2018,09,17,03,08,9.20
2018,09,17,03,09,9.10
2018,09,17,03,10,9.10
2018,09,17,03,11,9.10
2018,09,17,03,12,9.10
2018,09,17,03,13,9.10
2018,09,17,03,14,9.10
2018,09,17,03,15,9.10
2018,09,17,03,16,9.10
2018,09,17,03,17,9.10
2018,09,17,03,18,9.10
2018,09,17,03,19,9.10
2018,09,17,03,20,9.10
2018,09,17,03,21,9.00
2018,09,17,03,22,9.00
2018,09,17,03,23,8.90
2018,09,17,03,24,8.90
2018,09,17,03,25,8.80
2018,09,17,03,26,8.80
2018,09,17,03,27,8.70
2018,09,17,03,28,8.70
2018,09,17,03,29,8.60
2018,09,17,03,30,8.60
2018,09,17,03,31,8.50
2018,09,17,03,32,8.40
2018,09,17,03,33,8.40
2018,09,17,03,34,8.40
2018,09,17,03,35,8.30
2018,09,17,03,36,8.30
2018,09,17,03,37,8.30
2018,09,17,03,38,8.20
2018,09,17,03,39,8.20
2018,09,17,03,40,8.20
2018,09,17,03,41,8.20
2018,09,17,03,42,8.10
2018,09,17,03,43,8.10
2018,09,17,03,44,8.10
2018,09,17,03,45,8.10
2018,09,17,03,46,8.10
2018,09,17,03,47,8.10
2018,09,17,03,48,8.10
2018,09,17,03,49,8.10
2018,09,17,03,50,8.10
2018,09,17,03,51,8.20
2018,09,17,03,52,8.20
2018,09,17,03,53,8.20
2018,09,17,03,54,8.20
2018,09,17,03,55,8.20
2018,09,17,03,56,8.20
2018,09,17,03,57,8.20
2018,09,17,03,58,8.20
2018,09,17,03,59,8.20
2018,09,17,04,00,8.20
2018,09,17,04,01,8.20
2018,09,17,04,02,8.20
2018,09,17,04,03,8.20
2018,09,17,04,04,8.10
2018,09,17,04,05,8.10
2018,09,17,04,06,8.10
2018,09,17,04,07,8.10
2018,09,17,04,08,8.10
2018,09,17,04,09,8.00
2018,09,17,04,10,8.00
2018,09,17,04,11,8.00
2018,09,17,04,12,7.90
2018,09,17,04,13,7.90
2018,09,17,04,14,7.90
2018,09,17,04,15,7.90
2018,09,17,04,16,7.90
2018,09,17,04,17,7.80
2018,09,17,04,18,7.80
2018,09,17,04,19,7.80
2018,09,17,04,20,7.70
2018,09,17,04,21,7.70
2018,09,17,04,22,7.70
2018,09,17,04,23,7.70
2018,09,17,04,24,7.60
2018,09,17,04,25,7.60
2018,09,17,04,26,7.60
2018,09,17,04,27,7.60
2018,09,17,04,28,7.50
2018,09,17,04,29,7.50
2018,09,17,04,30,7.40
2018,09,17,04,31,7.40
2018,09,17,04,32,7.30
2018,09,17,04,33,7.30
2018,09,17,04,34,7.30
2018,09,17,04,35,7.30
2018,09,17,04,36,7.30
2018,09,17,04,37,7.30
2018,09,17,04,38,7.20
2018,09,17,04,39,7.20
2018,09,17,04,40,7.20
2018,09,17,04,41,7.20
2018,09,17,04,42,7.20
2018,09,17,04,43,7.20
2018,09,17,04,44,7.10
2018,09,17,04,45,7.10
2018,09,17,04,46,7.10
2018,09,17,04,47,7.00
2018,09,17,04,48,7.00
2018,09,17,04,49,7.00
2018,09,17,04,50,6.90
2018,09,17,04,51,6.90
2018,09,17,04,52,6.90
2018,09,17,04,53,6.90
2018,09,17,04,54,6.90
2018,09,17,04,55,6.90
2018,09,17,04,56,6.80
2018,09,17,04,57,6.80
2018,09,17,04,58,6.80
2018,09,17,04,59,6.80
2018,09,17,05,00,6.80
2018,09,17,05,01,6.80
2018,09,17,05,02,6.80
2018,09,17,05,03,6.80
2018,09,17,05,04,6.80
2018,09,17,05,05,6.80
2018,09,17,05,06,6.80
2018,09,17,05,07,6.80
2018,09,17,05,08,6.80
2018,09,17,05,09,6.70
2018,09,17,05,10,6.70
2018,09,17,05,11,6.70
2018,09,17,05,12,6.70
2018,09,17,05,13,6.70
2018,09,17,05,14,6.70
2018,09,17,05,15,6.70
2018,09,17,05,16,6.70
2018,09,17,05,17,6.70
2018,09,17,05,18,6.70
2018,09,17,05,19,6.60
2018,09,17,05,20,6.60
2018,09,17,05,21,6.60
2018,09,17,05,22,6.60
2018,09,17,05,23,6.60
2018,09,17,05,24,6.60
2018,09,17,05,25,6.50
2018,09,17,05,26,6.50
2018,09,17,05,27,6.50
2018,09,17,05,28,6.40
2018,09,17,05,29,6.40
2018,09,17,05,30,6.40
2018,09,17,05,31,6.40
2018,09,17,05,32,6.40
2018,09,17,05,33,6.30
2018,09,17,05,34,6.40
2018,09,17,05,35,6.40
2018,09,17,05,36,6.40
2018,09,17,05,37,6.30
2018,09,17,05,38,6.40
2018,09,17,05,39,6.30
2018,09,17,05,40,6.30
2018,09,17,05,41,6.30
2018,09,17,05,42,6.30
2018,09,17,05,43,6.20
2018,09,17,05,44,6.20
2018,09,17,05,45,6.20
2018,09,17,05,46,6.20
2018,09,17,05,47,6.20
2018,09,17,05,48,6.20
2018,09,17,05,49,6.10
2018,09,17,05,50,6.10
2018,09,17,05,51,6.10
2018,09,17,05,52,6.10
2018,09,17,05,53,6.10
2018,09,17,05,54,6.10
2018,09,17,05,55,6.10
2018,09,17,05,56,6.10
2018,09,17,05,57,6.10
2018,09,17,05,58,6.10
2018,09,17,05,59,6.10
2018,09,17,06,00,6.00
2018,09,17,06,01,6.00
2018,09,17,06,02,5.90
2018,09,17,06,03,5.90
2018,09,17,06,04,5.90
2018,09,17,06,05,5.90
2018,09,17,06,06,5.90
2018,09,17,06,07,5.90
2018,09,17,06,08,6.00
2018,09,17,06,09,6.00
2018,09,17,06,10,6.00
2018,09,17,06,11,6.00
2018,09,17,06,12,6.00
2018,09,17,06,13,6.00
2018,09,17,06,14,6.10
2018,09,17,06,15,6.10
2018,09,17,06,16,6.10
2018,09,17,06,17,6.10
2018,09,17,06,18,6.10
2018,09,17,06,19,6.10
2018,09,17,06,20,6.00
2018,09,17,06,21,6.00
2018,09,17,06,22,6.00
2018,09,17,06,23,5.90
2018,09,17,06,24,5.90
2018,09,17,06,25,5.90
2018,09,17,06,26,5.90
2018,09,17,06,27,5.90
2018,09,17,06,28,5.90
2018,09,17,06,29,5.90
2018,09,17,06,30,5.90
2018,09,17,06,31,5.90
2018,09,17,06,32,5.90
2018,09,17,06,33,5.90
2018,09,17,06,34,5.90
2018,09,17,06,35,5.90
2018,09,17,06,36,5.90
2018,09,17,06,37,5.90
2018,09,17,06,38,5.80
2018,09,17,06,39,5.80
2018,09,17,06,40,5.80
2018,09,17,06,41,5.80
2018,09,17,06,42,5.80
2018,09,17,06,43,5.80
2018,09,17,06,44,5.80
2018,09,17,06,45,5.80
2018,09,17,06,46,5.80
2018,09,17,06,47,5.80
2018,09,17,06,48,5.80
2018,09,17,06,49,5.80
2018,09,17,06,50,5.80
2018,09,17,06,51,5.80
2018,09,17,06,52,5.80
2018,09,17,06,53,5.80
2018,09,17,06,54,5.70
2018,09,17,06,55,5.70
2018,09,17,06,56,5.70
2018,09,17,06,57,5.70
2018,09,17,06,58,5.70
2018,09,17,06,59,5.70
2018,09,17,07,00,5.70
2018,09,17,07,01,5.70
2018,09,17,07,02,5.70
2018,09,17,07,03,5.60
2018,09,17,07,04,5.60
2018,09,17,07,05,5.60
2018,09,17,07,06,5.60
2018,09,17,07,07,5.60
2018,09,17,07,08,5.60
2018,09,17,07,09,5.60
2018,09,17,07,10,5.60
2018,09,17,07,11,5.60
2018,09,17,07,12,5.60
2018,09,17,07,13,5.60
2018,09,17,07,14,5.50
2018,09,17,07,15,5.50
2018,09,17,07,16,5.50
2018,09,17,07,17,5.60
2018,09,17,07,18,5.60
2018,09,17,07,19,5.60
2018,09,17,07,20,5.60
2018,09,17,07,21,5.60
2018,09,17,07,22,5.60
2018,09,17,07,23,5.60
2018,09,17,07,24,5.60
2018,09,17,07,25,5.60
2018,09,17,07,26,5.70
2018,09,17,07,27,5.70
2018,09,17,07,28,5.70
2018,09,17,07,29,5.70
2018,09,17,07,30,5.70
2018,09,17,07,31,5.70
2018,09,17,07,32,5.70
2018,09,17,07,33,5.70
2018,09,17,07,34,5.70
2018,09,17,07,35,5.70
2018,09,17,07,36,5.70
2018,09,17,07,37,5.80
2018,09,17,07,38,5.80
2018,09,17,07,39,5.80
2018,09,17,07,40,5.80
2018,09,17,07,41,5.80
2018,09,17,07,42,5.80
2018,09,17,07,43,5.90
2018,09,17,07,44,5.90
2018,09,17,07,45,5.90
2018,09,17,07,46,5.90
2018,09,17,07,47,5.90
2018,09,17,07,48,5.90
2018,09,17,07,49,5.90
2018,09,17,07,50,5.90
2018,09,17,07,51,5.90
2018,09,17,07,52,5.90
2018,09,17,07,53,5.90
2018,09,17,07,54,5.90
2018,09,17,07,55,5.90
2018,09,17,07,56,6.00
2018,09,17,07,57,6.00
2018,09,17,07,58,6.10
2018,09,17,07,59,6.10
2018,09,17,08,00,6.10
2018,09,17,08,01,6.10
2018,09,17,08,02,6.10
2018,09,17,08,03,6.10
2018,09,17,08,04,6.20
2018,09,17,08,05,6.20
2018,09,17,08,06,6.20
2018,09,17,08,07,6.20
2018,09,17,08,08,6.30
2018,09,17,08,09,6.30
2018,09,17,08,10,6.40
2018,09,17,08,11,6.40
2018,09,17,08,12,6.50
2018,09,17,08,13,6.50
2018,09,17,08,14,6.60
2018,09,17,08,15,6.60
2018,09,17,08,16,6.60
2018,09,17,08,17,6.70
2018,09,17,08,18,6.70
2018,09,17,08,19,6.70
2018,09,17,08,20,6.70
2018,09,17,08,21,6.80
2018,09,17,08,22,6.80
2018,09,17,08,23,6.80
2018,09,17,08,24,6.90
2018,09,17,08,25,6.90
2018,09,17,08,26,7.00
2018,09,17,08,27,7.00
2018,09,17,08,28,7.10
2018,09,17,08,29,7.10
2018,09,17,08,30,7.20
2018,09,17,08,31,7.20
2018,09,17,08,32,7.30
2018,09,17,08,33,7.40
2018,09,17,08,34,7.40
2018,09,17,08,35,7.50
2018,09,17,08,36,7.60
2018,09,17,08,37,7.60
2018,09,17,08,38,7.70
2018,09,17,08,39,7.80
2018,09,17,08,40,7.90
2018,09,17,08,41,7.90
2018,09,17,08,42,8.00
2018,09,17,08,43,8.10
2018,09,17,08,44,8.20
2018,09,17,08,45,8.30
2018,09,17,08,46,8.40
2018,09,17,08,47,8.50
2018,09,17,08,48,8.60
2018,09,17,08,49,8.70
2018,09,17,08,50,8.70
2018,09,17,08,51,8.80
2018,09,17,08,52,8.90
2018,09,17,08,53,9.00
2018,09,17,08,54,9.00
2018,09,17,08,55,9.10
2018,09,17,08,56,9.30
2018,09,17,08,57,9.40
2018,09,17,08,58,9.50
2018,09,17,08,59,9.60
2018,09,17,09,00,9.80
2018,09,17,09,01,9.90
2018,09,17,09,02,10.00
2018,09,17,09,03,10.20
2018,09,17,09,04,10.30
2018,09,17,09,05,10.40
2018,09,17,09,06,10.50
2018,09,17,09,07,10.50
2018,09,17,09,08,10.60
2018,09,17,09,09,10.70
2018,09,17,09,10,10.80
2018,09,17,09,11,10.90
2018,09,17,09,12,11.00
2018,09,17,09,13,11.10
2018,09,17,09,14,11.10
2018,09,17,09,15,11.20
2018,09,17,09,16,11.30
2018,09,17,09,17,11.30
2018,09,17,09,18,11.40
2018,09,17,09,19,11.50
2018,09,17,09,20,11.60
2018,09,17,09,21,11.60
2018,09,17,09,22,11.70
2018,09,17,09,23,11.70
2018,09,17,09,24,11.80
2018,09,17,09,25,11.80
2018,09,17,09,26,11.90
2018,09,17,09,27,11.90
2018,09,17,09,28,11.90
2018,09,17,09,29,12.00
2018,09,17,09,30,12.00
2018,09,17,09,31,12.00
2018,09,17,09,32,12.00
2018,09,17,09,33,12.00
2018,09,17,09,34,12.00
2018,09,17,09,35,12.10
2018,09,17,09,36,12.10
2018,09,17,09,37,12.10
2018,09,17,09,38,12.10
2018,09,17,09,39,12.10
2018,09,17,09,40,12.10
2018,09,17,09,41,12.10
2018,09,17,09,42,12.20
2018,09,17,09,43,12.20
2018,09,17,09,44,12.20
2018,09,17,09,45,12.20
2018,09,17,09,46,12.20
2018,09,17,09,47,12.20
2018,09,17,09,48,12.30
2018,09,17,09,49,12.30
2018,09,17,09,50,12.30
2018,09,17,09,51,12.30
2018,09,17,09,52,12.30
2018,09,17,09,53,12.30
2018,09,17,09,54,12.40
2018,09,17,09,55,12.40
2018,09,17,09,56,12.40
2018,09,17,09,57,12.50
2018,09,17,09,58,12.50
2018,09,17,09,59,12.60
2018,09,17,10,00,12.60
2018,09,17,10,01,12.60
2018,09,17,10,02,12.70
2018,09,17,10,03,12.70
2018,09,17,10,04,12.80
2018,09,17,10,05,12.80
2018,09,17,10,06,12.90
2018,09,17,10,07,12.90
2018,09,17,10,08,12.90
2018,09,17,10,09,12.90
2018,09,17,10,10,13.00
2018,09,17,10,11,13.00
2018,09,17,10,12,13.00
2018,09,17,10,13,13.00
2018,09,17,10,14,13.10
2018,09,17,10,15,13.10
2018,09,17,10,16,13.10
2018,09,17,10,17,13.10
2018,09,17,10,18,13.10
2018,09,17,10,19,13.10
2018,09,17,10,20,13.10
2018,09,17,10,21,13.10
2018,09,17,10,22,13.10
2018,09,17,10,23,13.20
2018,09,17,10,24,13.10
2018,09,17,10,25,13.10
2018,09,17,10,26,13.10
2018,09,17,10,27,13.20
2018,09,17,10,28,13.20
2018,09,17,10,29,13.20
2018,09,17,10,30,13.20
2018,09,17,10,31,13.20
2018,09,17,10,32,13.20
2018,09,17,10,33,13.20
2018,09,17,10,34,13.20
2018,09,17,10,35,13.20
2018,09,17,10,36,13.30
2018,09,17,10,37,13.30
2018,09,17,10,38,13.30
2018,09,17,10,39,13.40
2018,09,17,10,40,13.40
2018,09,17,10,41,13.40
2018,09,17,10,42,13.50
2018,09,17,10,43,13.50
2018,09,17,10,44,13.60
2018,09,17,10,45,13.70
2018,09,17,10,46,13.70
2018,09,17,10,47,13.80
2018,09,17,10,48,13.80
2018,09,17,10,49,13.80
2018,09,17,10,50,13.80
2018,09,17,10,51,13.80
2018,09,17,10,52,13.80
2018,09,17,10,53,13.80
2018,09,17,10,54,13.80
2018,09,17,10,55,13.80
2018,09,17,10,56,13.80
2018,09,17,10,57,13.80
2018,09,17,10,58,13.80
2018,09,17,10,59,13.90
2018,09,17,11,00,13.90
2018,09,17,11,01,14.00
2018,09,17,11,02,14.00
2018,09,17,11,03,14.00
2018,09,17,11,04,14.10
2018,09,17,11,05,14.20
2018,09,17,11,06,14.30
2018,09,17,11,07,14.30
2018,09,17,11,08,14.40
2018,09,17,11,09,14.50
2018,09,17,11,10,14.50
2018,09,17,11,11,14.60
2018,09,17,11,12,14.70
2018,09,17,11,13,14.80
2018,09,17,11,14,14.90
2018,09,17,11,15,15.00
2018,09,17,11,16,15.10
2018,09,17,11,17,15.20
2018,09,17,11,18,15.30
2018,09,17,11,19,15.40
2018,09,17,11,20,15.50
2018,09,17,11,21,15.50
2018,09,17,11,22,15.50
2018,09,17,11,23,15.50
2018,09,17,11,24,15.50
2018,09,17,11,25,15.60
2018,09,17,11,26,15.60
2018,09,17,11,27,15.70
2018,09,17,11,28,15.80
2018,09,17,11,29,15.90
2018,09,17,11,30,16.00
2018,09,17,11,31,16.00
2018,09,17,11,32,16.10
2018,09,17,11,33,16.10
2018,09,17,11,34,16.10
2018,09,17,11,35,16.10
2018,09,17,11,36,16.00
2018,09,17,11,37,15.90
2018,09,17,11,38,15.90
2018,09,17,11,39,15.80
2018,09,17,11,40,15.80
2018,09,17,11,41,15.80
2018,09,17,11,42,15.80
2018,09,17,11,43,15.80
2018,09,17,11,44,15.90
2018,09,17,11,45,16.00
2018,09,17,11,46,16.10
2018,09,17,11,47,16.10
2018,09,17,11,48,16.20
2018,09,17,11,49,16.30
2018,09,17,11,50,16.30
2018,09,17,11,51,16.30
2018,09,17,11,52,16.30
2018,09,17,11,53,16.30
2018,09,17,11,54,16.30
2018,09,17,11,55,16.30
2018,09,17,11,56,16.30
2018,09,17,11,57,16.40
2018,09,17,11,58,16.40
2018,09,17,11,59,16.50
2018,09,17,12,00,16.50
2018,09,17,12,01,16.50
2018,09,17,12,02,16.40
2018,09,17,12,03,16.30
2018,09,17,12,04,16.10
2018,09,17,12,05,16.10
2018,09,17,12,06,16.10
2018,09,17,12,07,16.10
2018,09,17,12,08,16.10
2018,09,17,12,09,16.10
2018,09,17,12,10,16.20
2018,09,17,12,11,16.20
2018,09,17,12,12,16.30
2018,09,17,12,13,16.20
2018,09,17,12,14,16.20
2018,09,17,12,15,16.20
2018,09,17,12,16,16.10
2018,09,17,12,17,16.10
2018,09,17,12,18,16.00
2018,09,17,12,19,16.00
2018,09,17,12,20,16.00
2018,09,17,12,21,16.10
2018,09,17,12,22,16.10
2018,09,17,12,23,16.10
2018,09,17,12,24,16.10
2018,09,17,12,25,16.20
2018,09,17,12,26,16.20
2018,09,17,12,27,16.30
2018,09,17,12,28,16.30
2018,09,17,12,29,16.40
2018,09,17,12,30,16.40
2018,09,17,12,31,16.50
2018,09,17,12,32,16.50
2018,09,17,12,33,16.60
2018,09,17,12,34,16.60
2018,09,17,12,35,16.50
2018,09,17,12,36,16.50
2018,09,17,12,37,16.50
2018,09,17,12,38,16.40
2018,09,17,12,39,16.40
2018,09,17,12,40,16.40
2018,09,17,12,41,16.40
2018,09,17,12,42,16.40
2018,09,17,12,43,16.40
2018,09,17,12,44,16.40
2018,09,17,12,45,16.50
2018,09,17,12,46,16.50
2018,09,17,12,47,16.60
2018,09,17,12,48,16.60
2018,09,17,12,49,16.70
2018,09,17,12,50,16.70
2018,09,17,12,51,16.80
2018,09,17,12,52,16.80
2018,09,17,12,53,16.80
2018,09,17,12,54,16.80
2018,09,17,12,55,16.80
2018,09,17,12,56,16.80
2018,09,17,12,57,16.80
2018,09,17,12,58,16.80
2018,09,17,12,59,16.80
2018,09,17,13,00,16.90
2018,09,17,13,01,16.90
2018,09,17,13,02,16.90
2018,09,17,13,03,17.00
2018,09,17,13,04,17.00
2018,09,17,13,05,17.00
2018,09,17,13,06,17.00
2018,09,17,13,07,17.00
2018,09,17,13,08,17.00
2018,09,17,13,09,17.00
2018,09,17,13,10,17.10
2018,09,17,13,11,17.10
2018,09,17,13,12,17.10
2018,09,17,13,13,17.20
2018,09,17,13,14,17.20
2018,09,17,13,15,17.20
2018,09,17,13,16,17.20
2018,09,17,13,17,17.10
2018,09,17,13,18,17.00
2018,09,17,13,19,16.90
2018,09,17,13,20,16.80
2018,09,17,13,21,16.80
2018,09,17,13,22,16.60
2018,09,17,13,23,16.60
2018,09,17,13,24,16.50
2018,09,17,13,25,16.40
2018,09,17,13,26,16.40
2018,09,17,13,27,16.30
2018,09,17,13,28,16.30
2018,09,17,13,29,16.30
2018,09,17,13,30,16.30
2018,09,17,13,31,16.20
2018,09,17,13,32,16.30
2018,09,17,13,33,16.30
2018,09,17,13,34,16.40
2018,09,17,13,35,16.40
2018,09,17,13,36,16.40
2018,09,17,13,37,16.40
2018,09,17,13,38,16.40
2018,09,17,13,39,16.40
2018,09,17,13,40,16.50
2018,09,17,13,41,16.50
2018,09,17,13,42,16.60
2018,09,17,13,43,16.60
2018,09,17,13,44,16.70
2018,09,17,13,45,16.80
2018,09,17,13,46,16.80
2018,09,17,13,47,16.80
2018,09,17,13,48,16.90
2018,09,17,13,49,16.90
2018,09,17,13,50,16.90
2018,09,17,13,51,16.90
2018,09,17,13,52,16.90
2018,09,17,13,53,16.90
2018,09,17,13,54,16.90
2018,09,17,13,55,16.90
2018,09,17,13,56,16.80
2018,09,17,13,57,16.80
2018,09,17,13,58,16.70
2018,09,17,13,59,16.60
2018,09,17,14,00,16.60
2018,09,17,14,01,16.60
2018,09,17,14,02,16.60
2018,09,17,14,03,16.60
2018,09,17,14,04,16.60
2018,09,17,14,05,16.60
2018,09,17,14,06,16.60
2018,09,17,14,07,16.60
2018,09,17,14,08,16.70
2018,09,17,14,09,16.70
2018,09,17,14,10,16.70
2018,09,17,14,11,16.80
2018,09,17,14,12,16.80
2018,09,17,14,13,16.80
2018,09,17,14,14,16.90
2018,09,17,14,15,16.90
2018,09,17,14,16,16.90
2018,09,17,14,17,16.90
2018,09,17,14,18,16.90
2018,09,17,14,19,17.00
2018,09,17,14,20,17.00
2018,09,17,14,21,17.00
2018,09,17,14,22,17.00
2018,09,17,14,23,17.00
2018,09,17,14,24,17.10
2018,09,17,14,25,17.10
2018,09,17,14,26,17.10
2018,09,17,14,27,17.20
2018,09,17,14,28,17.20
2018,09,17,14,29,17.20
2018,09,17,14,30,17.30
2018,09,17,14,31,17.30
2018,09,17,14,32,17.30
2018,09,17,14,33,17.30
2018,09,17,14,34,17.30
2018,09,17,14,35,17.30
2018,09,17,14,36,17.30
2018,09,17,14,37,17.30
2018,09,17,14,38,17.30
2018,09,17,14,39,17.30
2018,09,17,14,40,17.30
2018,09,17,14,41,17.20
2018,09,17,14,42,17.00
2018,09,17,14,43,16.80
2018,09,17,14,44,16.60
2018,09,17,14,45,16.50
2018,09,17,14,46,16.30
2018,09,17,14,47,16.30
2018,09,17,14,48,16.30
2018,09,17,14,49,16.30
2018,09,17,14,50,16.30
2018,09,17,14,51,16.30
2018,09,17,14,52,16.30
2018,09,17,14,53,16.30
2018,09,17,14,54,16.30
2018,09,17,14,55,16.40
2018,09,17,14,56,16.40
2018,09,17,14,57,16.40
2018,09,17,14,58,16.40
2018,09,17,14,59,16.40
2018,09,17,15,00,16.40
2018,09,17,15,01,16.50
2018,09,17,15,02,16.50
2018,09,17,15,03,16.50
2018,09,17,15,04,16.60
2018,09,17,15,05,16.60
2018,09,17,15,06,16.70
2018,09,17,15,07,16.70
2018,09,17,15,08,16.70
2018,09,17,15,09,16.70
2018,09,17,15,10,16.80
2018,09,17,15,11,16.80
2018,09,17,15,12,16.80
2018,09,17,15,13,16.80
2018,09,17,15,14,16.80
2018,09,17,15,15,16.80
2018,09,17,15,16,16.80
2018,09,17,15,17,16.80
2018,09,17,15,18,16.70
2018,09,17,15,19,16.70
2018,09,17,15,20,16.60
2018,09,17,15,21,16.50
2018,09,17,15,22,16.40
2018,09,17,15,23,16.30
2018,09,17,15,24,16.30
2018,09,17,15,25,16.20
2018,09,17,15,26,16.20
2018,09,17,15,27,16.20
2018,09,17,15,28,16.20
2018,09,17,15,29,16.20
2018,09,17,15,30,16.20
2018,09,17,15,31,16.20
2018,09,17,15,32,16.20
2018,09,17,15,33,16.20
2018,09,17,15,34,16.20
2018,09,17,15,35,16.20
2018,09,17,15,36,16.20
2018,09,17,15,37,16.20
2018,09,17,15,38,16.20
2018,09,17,15,39,16.20
2018,09,17,15,40,16.20
2018,09,17,15,41,16.20
2018,09,17,15,42,16.20
2018,09,17,15,43,16.20
2018,09,17,15,44,16.20
2018,09,17,15,45,16.20
2018,09,17,15,46,16.20
2018,09,17,15,47,16.20
2018,09,17,15,48,16.20
2018,09,17,15,49,16.20
2018,09,17,15,50,16.20
2018,09,17,15,51,16.20
2018,09,17,15,52,16.20
2018,09,17,15,53,16.20
2018,09,17,15,54,16.10
2018,09,17,15,55,16.00
2018,09,17,15,56,15.90
2018,09,17,15,57,15.80
2018,09,17,15,58,15.80
2018,09,17,15,59,15.70
2018,09,17,16,00,15.70
2018,09,17,16,01,15.70
2018,09,17,16,02,15.70
2018,09,17,16,03,15.70
2018,09,17,16,04,15.70
2018,09,17,16,05,15.70
2018,09,17,16,06,15.60
2018,09,17,16,07,15.60
2018,09,17,16,08,15.60
2018,09,17,16,09,15.60
2018,09,17,16,10,15.50
2018,09,17,16,11,15.50
2018,09,17,16,12,15.40
2018,09,17,16,13,15.40
2018,09,17,16,14,15.40
2018,09,17,16,15,15.40
2018,09,17,16,16,15.40
2018,09,17,16,17,15.30
2018,09,17,16,18,15.30
2018,09,17,16,19,15.30
2018,09,17,16,20,15.30
2018,09,17,16,21,15.20
2018,09,17,16,22,15.20
2018,09,17,16,23,15.10
2018,09,17,16,24,15.10
2018,09,17,16,25,15.10
2018,09,17,16,26,15.00
2018,09,17,16,27,15.00
2018,09,17,16,28,14.90
2018,09,17,16,29,14.90
2018,09,17,16,30,14.90
2018,09,17,16,31,14.90
2018,09,17,16,32,14.90
2018,09,17,16,33,14.80
2018,09,17,16,34,14.80
2018,09,17,16,35,14.80
2018,09,17,16,36,14.80
2018,09,17,16,37,14.80
2018,09,17,16,38,14.70
2018,09,17,16,39,14.70
2018,09,17,16,40,14.70
2018,09,17,16,41,14.70
2018,09,17,16,42,14.60
2018,09,17,16,43,14.60
2018,09,17,16,44,14.60
2018,09,17,16,45,14.60
2018,09,17,16,46,14.60
2018,09,17,16,47,14.60
2018,09,17,16,48,14.60
2018,09,17,16,49,14.60
2018,09,17,16,50,14.60
2018,09,17,16,51,14.60
2018,09,17,16,52,14.60
2018,09,17,16,53,14.60
2018,09,17,16,54,14.60
2018,09,17,16,55,14.60
2018,09,17,16,56,14.70
2018,09,17,16,57,14.70
2018,09,17,16,58,14.70
2018,09,17,16,59,14.70
2018,09,17,17,00,14.70
2018,09,17,17,01,14.70
2018,09,17,17,02,14.70
2018,09,17,17,03,14.70
2018,09,17,17,04,14.70
2018,09,17,17,05,14.70
2018,09,17,17,06,14.70
2018,09,17,17,07,14.70
2018,09,17,17,08,14.70
2018,09,17,17,09,14.70
2018,09,17,17,10,14.70
2018,09,17,17,11,14.70
2018,09,17,17,12,14.70
2018,09,17,17,13,14.70
2018,09,17,17,14,14.80
2018,09,17,17,15,14.80
2018,09,17,17,16,14.90
2018,09,17,17,17,15.00
2018,09,17,17,18,15.10
2018,09,17,17,19,15.20
2018,09,17,17,20,15.20
2018,09,17,17,21,15.30
2018,09,17,17,22,15.30
2018,09,17,17,23,15.30
2018,09,17,17,24,15.30
2018,09,17,17,25,15.30
2018,09,17,17,26,15.40
2018,09,17,17,27,15.40
2018,09,17,17,28,15.40
2018,09,17,17,29,15.40
2018,09,17,17,30,15.30
2018,09,17,17,31,15.30
2018,09,17,17,32,15.30
2018,09,17,17,33,15.30
2018,09,17,17,34,15.30
2018,09,17,17,35,15.30
2018,09,17,17,36,15.30
2018,09,17,17,37,15.30
2018,09,17,17,38,15.20
2018,09,17,17,39,15.20